Other Public Products
Issued by NWS Grand Forks, ND

Home | Current Version | Previous Version | Text Only | Print | Product List | Glossary On
Versions: 1 2 3 4 5 6 7 8 9 10 11 12 13 14 15 16 17 18 19 20 21 22 23 24 25 26 27 28 29 30 31 32 33 34 35 36 37 38 39 40 41 42 43 44 45 46 47 48 49 50
000
FPUS83 KFGF 161831
OPUFGF
PRAIRIE TO PINES WEATHER ROUNDUP
NATIONAL WEATHER SERVICE EASTERN NORTH DAKOTA/GRAND FORKS ND
100 PM CDT WED APR 16 2014

 **SATELLITE DATA USED TO AUGMENT SKY COVER AT AUTOMATED STATIONS**
 *****  WEATHER ACROSS EASTERN NORTH DAKOTA  *****

CITY           SKY/WX    TMP DP  RH WIND       PRES   REMARKS
GRAND FORKS    FAIR      40   7  25 NE20G26   30.09S
6HR MIN TEMP:  28; 6HR MAX TEMP:  40;

GRAND FORKS AF FAIR      40   9  28 E14G25    30.13S
GRAND CITY NWS   N/A     39 N/A N/A E12         N/A
BUXTON           N/A     40  19  43 NE17G30     N/A
DEVILS LAKE    FAIR      36  10  35 E20G26    30.13R
6HR MIN TEMP:  23; 6HR MAX TEMP:  36;

FARGO          CLOUDY    32  23  69 NE16      30.06R WCI  21
6HR MIN TEMP:  28; 6HR MAX TEMP:  32; 6HR PCP: TRACE;

WAHPETON ARPT  MOCLDY    32  23  69 NE17G30   30.00R WCI  21
$$

 *****  WEATHER ACROSS CENTRAL AND WESTERN NORTH DAKOTA  *****

CITY           SKY/WX    TMP DP  RH WIND       PRES   REMARKS
JAMESTOWN      CLOUDY    32  20  61 NE17      30.06R WCI  21
6HR MIN TEMP:  26; 6HR MAX TEMP:  31;

BISMARCK       CLOUDY    30  21  69 NE15      30.09R WCI  19
6HR MIN TEMP:  28; 6HR MAX TEMP:  30;

MINOT          LGT SNOW  26  20  77 NE10      30.16R WCI  16
6HR MIN TEMP:  22; 6HR MAX TEMP:  26; 6HR PCP: TRACE;

MINOT AFB      LGT SNOW  28  20  74 E9        30.17R WCI  19
6HR MIN TEMP:  22; 6HR MAX TEMP:  28; 6HR PCP: TRACE;

GARRISON         N/A     26  19  74 E13       30.12R WCI  15
6HR MIN TEMP:  24; 6HR MAX TEMP:  27; 6HR PCP:  0.02;

WILLISTON      CLOUDY    27  21  78 E16       30.15R WCI  15
6HR MIN TEMP:  25; 6HR MAX TEMP:  27;

DICKINSON      CLOUDY    27  21  78 NE9       30.04R WCI  18
6HR MIN TEMP:  22; 6HR MAX TEMP:  27;

HETTINGER      CLOUDY    29  21  72 NE12      30.03R WCI  19
6HR MIN TEMP:  23; 6HR MAX TEMP:  30;

$$

 *****  OTHER OBSERVATIONS NORTHEAST NORTH DAKOTA  *****

CITY           SKY/WX    TMP DP  RH WIND       PRES   REMARKS
WALHALLA         N/A     34   9  35 NE17      30.22S WCI  23
LANGDON        FAIR      36   7  30 NE20G25   30.16R
CAVALIER       FAIR      36   9  32 NE12G18   30.21S
GRAFTON        FAIR      36  12  38 NE18G25   30.17S
CANDO          CLOUDY    36  10  35 E15G24    30.17R
FORT TOTTEN    NOT AVBL
ROLLA          FAIR      30  14  51 NE20      30.18S WCI  18
RUGBY          FAIR      32  18  55 E21       30.15S WCI  20
 ***** THE ABOVE OBSERVATIONS ARE NON NWS ARE NOT QUALITY
        CONTROLLED AND MAY MIS-REPORT RAIN FOR SNOW...
$$

 *****  OTHER OBSERVATIONS SOUTHEAST NORTH DAKOTA *****

CITY           SKY/WX    TMP DP  RH WIND       PRES   REMARKS
COOPERSTOWN    FAIR      32  19  59 NE22G28   30.08R WCI  19
VALLEY CITY    NOT AVBL
OAKES          CLOUDY    32  25  74 NE22G28   30.00R WCI  19
GWINNER        CLOUDY    34  27  75 NE18G26   30.01R WCI  23
BUFFALO          N/A     33  16  49 E17         N/A  WCI  22
WYNDMERE       NOT AVBL
 ***** THE ABOVE OBSERVATIONS ARE NON NWS ARE NOT QUALITY
       CONTROLLED AND MAY MIS-REPORT RAIN FOR SNOW...
$$

  *****  WEATHER ACROSS NORTHERN MINNESOTA  *****

CITY           SKY/WX    TMP DP  RH WIND       PRES   REMARKS
FLAG ISLAND    FAIR      28   7  40 N13       30.22S WCI  18
WARROAD        FAIR      30  12  47 NE15      30.21F WCI  19
ROSEAU         FAIR      34   9  35 E17G23    30.20S WCI  23
HALLOCK        CLOUDY    36   7  30 NE14G21   30.20S
THF RVR FALLS  FAIR      37   7  28 NE20G25   30.13R
6HR MIN TEMP:  25; 6HR MAX TEMP:  37;

HALSTAD          N/A     37  19  48 E17         N/A
FOSSTON        CLOUDY    37  16  41 NE15G22   30.09R
BAUDETTE       FAIR      34   6  31 NE14      30.18S WCI  25
6HR MIN TEMP:  19; 6HR MAX TEMP:  34;

WASKISH        PTSUNNY   39   9  28 E14G20    30.13S
CROOKSTON      FAIR      39  10  30 E16G22    30.13R
$$
  *****  WEATHER ACROSS CENTRAL AND WEST MINNESOTA  *****

CITY           SKY/WX    TMP DP  RH WIND       PRES   REMARKS
BEMIDJI        CLOUDY    34  15  45 E13G18    30.09R WCI  25
PARK RAPIDS    CLOUDY    28  21  75 E16G28    30.04R WCI  16
6HR MIN TEMP:  24; 6HR MAX TEMP:  28; 6HR PCP: TRACE;

WADENA         LGT SNOW  27  23  86 NE13G25   30.00R VSB 1   WCI  16
DETROIT LAKES  PTSUNNY   32  23  69 E22G29    30.03R WCI  19
MOORHEAD       PTSUNNY   34  27  75 NE16G22   30.06S WCI  23
FERGUS FALLS   DRIZZLE   30  21  69 E20G29    29.97R WCI  18
ELBOW LAKE     LGT SNOW  28  26  89 NE20G28   29.95R WCI  15
6HR MIN TEMP:  27; 6HR MAX TEMP:  28;

MORRIS MN      SNOW      28  27  93 NE22G28   29.91R VSB 1/2 WCI  15
STAPLES        LGT SNOW  27  25  93 NE12      30.00S VSB 1   WCI  16
WHEATON        LGT SNOW  32  28  86 NE17G25   29.97S WCI  21
$$
  *****  WEATHER ELSEWHERE ACROSS MINNESOTA  *****

CITY           SKY/WX    TMP DP  RH WIND       PRES   REMARKS
DULUTH         LGT SNOW  26  22  84 E20G33    30.10F VSB 3/4 WCI  12
6HR MIN TEMP:  25; 6HR MAX TEMP:  27; 6HR PCP:  0.04;

INTRNTL FALLS  FAIR      33   6  32 NE8       30.18F
6HR MIN TEMP:  17; 6HR MAX TEMP:  33;

ELY            FAIR      30   5  34 E10G16    30.15F WCI  21
CLOQUET        SNOW      27  25  93 E20G25    30.09R VSB 1/2 WCI  13
BRAINERD       SNOW      32  24  72 NE15G26   30.01F VSB 1/2 WCI  22
6HR MIN TEMP:  29; 6HR MAX TEMP:  32; 6HR PCP: TRACE;

HIBBING        FLURRIES  29  19  66 E14G23    30.13F WCI  18
6HR MIN TEMP:  23; 6HR MAX TEMP:  31; 6HR PCP: TRACE;

ALEXANDRIA     SNOW      27  24  89 NE20G29   29.94R VSB 1/4 WCI  13
6HR MIN TEMP:  27; 6HR MAX TEMP:  28; 6HR PCP:  0.05;

SAINT CLOUD    SNOW      29  26  89 NE14G22   29.92F VSB 1/4 WCI  18
6HR MIN TEMP:  29; 6HR MAX TEMP:  30; 6HR PCP:  0.33;

MINNEAPOLIS    CLOUDY    35  27  72 E16       29.89F
6HR MIN TEMP:  32; 6HR MAX TEMP:  36; 6HR PCP: TRACE;

$$

  *****  WEATHER ACROSS SOUTH DAKOTA  *****

CITY           SKY/WX    TMP DP  RH WIND       PRES   REMARKS
SIOUX FALLS    LGT RAIN  47  34  60 SE5       29.65S
6HR MIN TEMP:  43; 6HR MAX TEMP:  48; 6HR PCP:  0.06;

BROOKINGS      NOT AVBL
WATERTOWN      SNOW      27  25  92 NE26G32   29.82R VSB 1/2 WCI  12
6HR MIN TEMP:  27; 6HR MAX TEMP:  30; 6HR PCP:  0.02;

HURON          CLOUDY    32  27  81 N23G36    29.84R WCI  19
6HR MIN TEMP:  30; 6HR MAX TEMP:  34; 6HR PCP:  0.17;

SISSETON         N/A     29  27  92 E21       29.93S WCI  16
ABERDEEN       CLOUDY    31  26  82 NE23G30   29.95R WCI  18
6HR MIN TEMP:  27; 6HR MAX TEMP:  31; 6HR PCP:  0.02;

MITCHELL       CLOUDY    35  32  88 N23G29    29.76R FOG     WCI  23
PIERRE         CLOUDY    33  27  78 N21       29.94R WCI  21
6HR MIN TEMP:  30; 6HR MAX TEMP:  33; 6HR PCP:  0.02;

MOBRIDGE       CLOUDY    33  24  69 N15       29.98R WCI  23
RAPID CITY     CLOUDY    43  28  56 N23G30    29.96R
6HR MIN TEMP:  33; 6HR MAX TEMP:  42; 6HR PCP: TRACE;

$$

  *****  SOME WEATHER IN NEARBY STATES *****

CITY           SKY/WX    TMP DP  RH WIND       PRES   REMARKS
GLASGOW MT     CLOUDY    34  21  59 E10       30.10R
6HR MIN TEMP:  23; 6HR MAX TEMP:  34;

GREAT FALLS MT PTSUNNY   40  31  70 NW5       29.97F
6HR MIN TEMP:  31; 6HR MAX TEMP:  42;

CHEYENNE WY    LGT SNOW  36  30  79 NW12G23   29.96R
6HR MIN TEMP:  32; 6HR MAX TEMP:  41; 6HR PCP: TRACE;

SCOTTSBLUFF NE MOSUNNY   52  25  35 NW25G35   29.92R
6HR MIN TEMP:  40; 6HR MAX TEMP:  53;

OMAHA NE       CLOUDY    60  28  29 S23G32    29.70F
6HR MIN TEMP:  46; 6HR MAX TEMP:  60;

DES MOINES IA  CLOUDY    63  30  28 S32G40    29.83F
6HR MIN TEMP:  43; 6HR MAX TEMP:  63;

DAVENPORT IA   FAIR      54  30  40 S29G39    30.08F
6HR MIN TEMP:  35; 6HR MAX TEMP:  54;

CHICAGO IL     CLOUDY    48  25  40 S21G30    30.23F
6HR MIN TEMP:  31; 6HR MAX TEMP:  48;

EAU CLAIRE WI  CLOUDY    39  28  64 E16       29.97F
6HR MIN TEMP:  29; 6HR MAX TEMP:  40; 6HR PCP: TRACE;

LA CROSSE WI   FAIR      54  28  36 S17G25    29.95F
6HR MIN TEMP:  34; 6HR MAX TEMP:  54;

$$

  *****  SOME NATIONAL WEATHER *****

CITY           SKY/WX    TMP DP  RH WIND       PRES   REMARKS
LA GUARDIA NY  FAIR      44  17  33 NW15G24   30.40R



USA.gov is the U.S. government's official web portal to all federal, state and local government web resources and services.